Stations météo

réclame
Mon MeteoGroup
Lerida, Espagne (8171): Température de l'air & dewpoint: 14.10.2018 04:00:00 - 20.10.2018 04:00:00 (CEST)Lerida, Espagne (8171): Vitesse du vent: 14.10.2018 04:00:00 - 20.10.2018 04:00:00 (CEST)Lerida, Espagne (8171): Direction du vent: 14.10.2018 04:00:00 - 20.10.2018 04:00:00 (CEST)Lerida, Espagne (8171): reduced air pressure: 14.10.2018 04:00:00 - 20.10.2018 04:00:00 (CEST)Lerida, Espagne (8171): visibility: 14.10.2018 04:00:00 - 20.10.2018 04:00:00 (CEST)Lerida, Espagne (8171): Quantités de précipitations: 14.10.2018 04:00:00 - 20.10.2018 04:00:00 (CEST)
Date & Time tt [°C] td [°C] ff [km/h] ff [knt] dd ppp [hPa] vv [km] rr [mm]
20.10.2018 04:00:00 16,0 15,4 4 2 SSW 1020,0 6 0,0
20.10.2018 03:00:00 16,4 15,8 2 1 NW 1019,8 11 0,0
20.10.2018 02:00:00 16,1 15,6 8 4 N 1019,8 4,6 -
20.10.2018 01:00:00 15,9 15,1 5 3 NW 1020,0 13 0,4
20.10.2018 00:00:00 16,2 15,1 8 4 WSW 1020,1 4,7 0,0
19.10.2018 23:00:00 17,8 16,3 8 4 WSW 1019,1 7 -
19.10.2018 22:00:00 18,5 15,9 2 1 N 1017,9 16 0,0
19.10.2018 21:00:00 19,2 15,7 8 4 NE 1017,3 16 0,0
19.10.2018 20:00:00 20,7 15,7 5 3 NE 1016,5 16 -
19.10.2018 19:00:00 21,6 14,7 13 7 E 1015,4 20 0,0
19.10.2018 18:00:00 22,2 14,8 9 5 E 1014,7 20 0,0
19.10.2018 17:00:00 22,9 15,7 9 5 E 1014,4 19 -
19.10.2018 16:00:00 23,4 15,2 15 8 E 1014,3 20 0,0
19.10.2018 15:00:00 22,1 16,6 8 4 E 1014,6 18 0,0
19.10.2018 14:00:00 20,4 16,4 2 1 NNE 1014,9 17 -
19.10.2018 13:00:00 19,2 16,2 5 3 E 1015,4 17 0,0
19.10.2018 12:00:00 17,5 16,5 5 3 NE 1015,7 10 0,0
19.10.2018 11:00:00 16,7 15,7 8 4 NE 1015,8 11 -
19.10.2018 10:00:00 16,2 15,4 11 6 NE 1015,5 - 0,0
19.10.2018 09:00:00 16,0 15,2 9 5 NE 1014,5 10 1,0
19.10.2018 08:00:00 16,2 15,2 5 3 ENE 1014,1 6 -
19.10.2018 07:00:00 16,2 14,9 8 4 NNE 1013,3 17 0,2
19.10.2018 06:00:00 16,1 14,8 8 4 NW 1013,3 3,7 4,0
19.10.2018 05:00:00 17,0 14,3 5 3 N 1012,9 11 -
19.10.2018 04:00:00 16,9 14,4 5 3 NNW 1013,1 19 0,0
19.10.2018 03:00:00 16,7 14,2 4 2 WNW 1013,3 20 0,0
19.10.2018 02:00:00 17,0 14,3 4 2 E 1013,2 20 -
19.10.2018 01:00:00 17,5 14,0 4 2 NE 1013,0 19 0,0
19.10.2018 00:00:00 18,3 14,2 8 4 NNE 1013,1 20 0,0
18.10.2018 23:00:00 18,6 14,9 8 4 NNE 1012,8 20 -
18.10.2018 22:00:00 18,4 15,3 5 3 NNE 1012,2 20 0,0
18.10.2018 21:00:00 18,2 15,4 5 3 N 1011,7 19 0,0
18.10.2018 20:00:00 18,3 15,7 4 2 N 1011,7 20 -
18.10.2018 19:00:00 18,8 16,2 4 2 N 1011,1 19 0,0
18.10.2018 18:00:00 19,0 15,9 5 3 NNE 1010,9 20 0,0
18.10.2018 17:00:00 19,2 15,7 5 3 E 1010,8 20 -
18.10.2018 16:00:00 19,5 15,6 16 9 ENE 1011,0 18 0,0
18.10.2018 15:00:00 20,0 15,4 16 9 ENE 1011,5 17 0,0
18.10.2018 14:00:00 20,8 14,9 8 4 NE 1011,7 14 -
18.10.2018 13:00:00 19,8 15,6 5 3 SW 1012,4 13 0,0
18.10.2018 12:00:00 17,3 15,8 4 2 SSE 1012,9 7 0,0
18.10.2018 11:00:00 15,4 15,1 2 1 NE 1013,1 2,4 -
18.10.2018 10:00:00 14,3 14,1 2 1 N 1013,2 2,1 0,0
18.10.2018 09:00:00 13,6 13,3 4 2 S 1012,9 0,1 0,0
18.10.2018 08:00:00 13,5 13,0 2 1 S 1012,5 0,2 -
18.10.2018 07:00:00 14,0 13,4 4 2 SSW 1012,4 1,4 0,0
18.10.2018 06:00:00 14,5 13,7 4 2 SSW 1012,4 2,4 0,0
18.10.2018 05:00:00 15,5 14,0 4 2 N 1012,3 9 -
18.10.2018 04:00:00 16,1 14,5 8 4 N 1012,7 13 0,0
18.10.2018 03:00:00 16,1 14,6 4 2 N 1013,4 10 0,0
18.10.2018 02:00:00 16,4 14,6 4 2 NNE 1013,7 13 -
18.10.2018 01:00:00 16,4 14,6 5 3 N 1014,3 12 0,0
18.10.2018 00:00:00 15,8 14,2 5 3 N 1014,7 10 0,0
17.10.2018 23:00:00 15,7 13,7 8 4 NE 1014,8 13 -
17.10.2018 22:00:00 16,3 14,3 4 2 NE 1014,0 14 0,0
17.10.2018 21:00:00 17,2 14,3 4 2 NW 1013,5 14 0,0
17.10.2018 20:00:00 18,9 14,4 2 1 SW 1013,1 18 -
17.10.2018 19:00:00 21,6 13,8 4 2 S 1012,7 20 0,0
17.10.2018 18:00:00 23,1 13,0 5 3 W 1012,5 19 0,0
17.10.2018 17:00:00 23,0 13,2 8 4 WSW 1013,1 16 -
17.10.2018 16:00:00 22,6 13,6 11 6 W 1013,4 19 0,0
17.10.2018 15:00:00 21,9 14,8 8 4 SW 1014,3 17 0,0
17.10.2018 14:00:00 20,5 14,8 8 4 W 1015,2 15 -
17.10.2018 13:00:00 18,9 15,0 9 5 SW 1016,8 14 0,0
17.10.2018 12:00:00 16,3 14,8 8 4 WSW 1017,2 13 0,0
17.10.2018 11:00:00 15,0 14,5 5 3 SW 1017,8 6 -
17.10.2018 10:00:00 14,4 13,9 4 2 SSW 1017,9 2,8 0,0
17.10.2018 09:00:00 13,7 13,2 4 2 S 1017,8 6 0,0
17.10.2018 08:00:00 14,1 13,3 4 2 W 1017,5 6 -
17.10.2018 07:00:00 14,7 13,9 4 2 SSW 1017,6 - 0,0
17.10.2018 06:00:00 15,0 13,9 2 1 N 1017,3 8 0,0
17.10.2018 05:00:00 15,2 13,9 2 1 ESE 1017,1 11 -
17.10.2018 04:00:00 15,4 13,9 4 2 N 1017,1 15 0,0
17.10.2018 03:00:00 15,5 14,2 5 3 NNE 1017,7 12 0,0
17.10.2018 02:00:00 15,6 14,3 4 2 NNE 1017,8 13 -
17.10.2018 01:00:00 15,9 14,3 5 3 NE 1018,1 14 0,0
17.10.2018 00:00:00 16,6 14,4 4 2 NE 1018,0 19 0,0
16.10.2018 23:00:00 16,8 14,1 8 4 N 1018,2 19 -
16.10.2018 22:00:00 17,3 13,8 8 4 NE 1017,7 20 0,0
16.10.2018 21:00:00 17,5 14,0 2 1 S 1017,0 19 0,0
16.10.2018 20:00:00 18,6 13,2 4 2 W 1016,5 19 -
16.10.2018 19:00:00 20,3 12,8 5 3 W 1015,7 20 0,0
16.10.2018 18:00:00 22,2 12,7 5 3 SW 1015,2 20 0,0
16.10.2018 17:00:00 22,5 13,0 9 5 W 1015,2 20 -
16.10.2018 16:00:00 22,5 12,1 5 3 W 1015,2 20 0,0
16.10.2018 15:00:00 21,8 12,4 4 2 SSW 1015,4 20 0,0
16.10.2018 14:00:00 20,3 13,7 8 4 SW 1015,7 10 -
16.10.2018 13:00:00 18,7 13,3 4 2 WSW 1016,3 18 0,0
16.10.2018 12:00:00 16,0 14,0 2 1 SSW 1016,6 15 0,0
16.10.2018 11:00:00 12,0 11,8 4 2 SSW 1017,0 2,0 -
16.10.2018 10:00:00 11,1 10,9 5 3 WSW 1016,8 0,8 0,0
16.10.2018 09:00:00 10,2 9,9 4 2 WSW 1016,0 0,1 0,0
16.10.2018 08:00:00 10,2 9,6 4 2 S 1014,7 10 -
16.10.2018 07:00:00 11,1 10,5 5 3 NNW 1013,8 12 0,0
16.10.2018 06:00:00 11,2 10,6 5 3 NW 1013,4 17 0,0
16.10.2018 05:00:00 11,1 10,3 5 3 NE 1012,8 12 -
16.10.2018 04:00:00 11,4 10,6 5 3 E 1012,8 15 0,0
16.10.2018 03:00:00 11,7 10,8 5 3 NNE 1013,0 17 0,0
16.10.2018 02:00:00 12,1 11,0 8 4 NE 1012,9 17 -
16.10.2018 01:00:00 12,6 11,5 5 3 ENE 1012,8 16 0,0
16.10.2018 00:00:00 12,9 11,6 5 3 N 1012,4 15 0,0
15.10.2018 23:00:00 13,5 12,1 8 4 NNE 1011,9 17 -
15.10.2018 22:00:00 14,1 12,5 5 3 N 1011,4 17 0,0
15.10.2018 21:00:00 14,8 12,8 5 3 NNE 1010,5 19 0,0
15.10.2018 20:00:00 15,9 13,0 5 3 NNE 1009,7 20 -
15.10.2018 19:00:00 17,1 12,8 5 3 ENE 1008,7 20 0,0
15.10.2018 18:00:00 17,7 12,8 8 4 ENE 1008,3 20 0,0
15.10.2018 17:00:00 18,2 12,0 5 3 NNW 1008,1 16 -
15.10.2018 16:00:00 18,6 11,9 8 4 NNW 1007,6 18 0,0
15.10.2018 15:00:00 17,5 11,7 4 2 WSW 1007,6 9 0,0
15.10.2018 14:00:00 17,1 11,6 5 3 NE 1007,9 25 -
15.10.2018 13:00:00 16,8 12,1 8 4 W 1008,2 20 0,0
15.10.2018 12:00:00 15,5 11,7 11 6 W 1008,0 20 0,0
15.10.2018 11:00:00 14,4 11,5 9 5 SW 1007,7 20 -
15.10.2018 10:00:00 13,7 11,6 11 6 SW 1007,1 20 0,0
15.10.2018 09:00:00 12,5 11,2 11 6 WSW 1006,5 18 0,0
15.10.2018 08:00:00 12,6 11,5 11 6 SW 1006,0 20 -
15.10.2018 07:00:00 13,2 12,1 11 6 SW 1005,5 20 0,0
15.10.2018 06:00:00 13,7 12,8 13 7 SW 1005,0 19 0,0
15.10.2018 05:00:00 14,1 13,3 15 8 W 1004,5 19 -
15.10.2018 04:00:00 13,9 12,9 11 6 W 1004,5 19 0,0
15.10.2018 03:00:00 14,5 13,9 9 5 WSW 1004,5 7 0,0
15.10.2018 02:00:00 14,8 14,3 8 4 W 1004,5 4,9 -
15.10.2018 01:00:00 15,0 14,5 5 3 WSW 1004,9 - 0,0
15.10.2018 00:00:00 14,9 14,6 5 3 NNW 1005,1 2,1 4,0
14.10.2018 23:00:00 14,8 14,5 11 6 N 1005,5 3,3 -
14.10.2018 22:00:00 14,8 14,3 13 7 NE 1005,9 3,5 0,0
14.10.2018 21:00:00 14,9 14,4 15 8 ENE 1006,9 17 0,0
14.10.2018 20:00:00 15,0 14,5 11 6 NE 1007,6 3,8 -
14.10.2018 19:00:00 15,0 14,4 8 4 ENE 1008,3 2,2 2,0
14.10.2018 18:00:00 15,3 14,5 11 6 E - - 6,0
14.10.2018 17:00:00 15,9 14,4 15 8 WSW 1008,7 1,4 -
14.10.2018 16:00:00 22,5 14,6 11 6 ESE 1006,2 20 0,0
14.10.2018 15:00:00 23,6 14,3 11 6 SE 1006,4 20 0,0
14.10.2018 14:00:00 24,4 14,5 15 8 SE 1007,4 20 -
14.10.2018 13:00:00 23,7 16,2 11 6 E 1008,3 20 0,0
14.10.2018 12:00:00 22,6 15,7 18 10 E 1009,0 20 0,0
14.10.2018 11:00:00 21,4 16,4 15 8 ENE 1009,2 20 -
14.10.2018 10:00:00 19,8 16,4 13 7 ENE 1009,8 20 0,0
14.10.2018 09:00:00 18,8 16,0 11 6 ENE 1010,2 20 0,0
14.10.2018 08:00:00 18,4 15,8 11 6 ENE 1010,7 19 -
14.10.2018 07:00:00 18,2 15,6 11 6 ENE 1011,1 17 0,0
14.10.2018 06:00:00 17,8 15,6 11 6 ENE 1011,6 18 0,0
14.10.2018 05:00:00 17,9 15,7 8 4 NE 1011,8 17 -
14.10.2018 04:00:00 18,3 15,9 11 6 ENE 1012,4 16 0,0

tt = Température de l'air
td = dewpoint
ff = Vitesse du vent
dd = Direction du vent
ppp = reduced air pressure
vv = visibility
rr = Quantités de précipitations

stations d'obs. à proximité